Flag for Kazakhstan Weather past 2 weeks in Qyzylorda, Kazakhstan

Now
86 °F

Passing clouds.


Feels Like: 83 °F
Forecast: 63 / 85 °F
Wind: 3 mph from Northeast

Location: Kzyl-Orda

Current Time: May 26, 2015 at 2:15:28 PM

Latest Report: May 26, 2015 at 1:30 PM


Visibility: N/A

Pressure: 30.04 "Hg

Humidity: 27%

Dew point: 48 °F

Location of QyzylordaLocation

Historic Weather in Qyzylorda — Graph

°F

Qyzylorda temperature yesterday

Maximum temperature yesterday: 86 °F (at 4:30 PM)
Minimum temperature yesterday: 52 °F (at 5:30 AM)
Average temperature yesterday: 73 °F

Past Weeks' High & Low Weather Summary

 TemperatureHumidityPressure
High86 °F (May 14, 3:30 PM)100% (May 16, 2:00 AM)30.09 "Hg (May 16, 2:00 AM)
Low43 °F (May 21, 6:00 AM)21% (May 19, 4:00 PM)29.62 "Hg (May 16, 6:00 AM)
Average67 °F55%29.94 "Hg
* Reported May 11 1:00 PM — May 26 1:00 PM, Qyzylorda, Weather by CustomWeather, © 2015

Note: Actual official high and low records may vary slightly from our data, if they occured in-between our weather recording intervals... More about our weather records

Advertising

Qyzylorda weather history for previous 24 hours

 ConditionsComfort  
Time TempWeatherWind HumidityBarometerVisibility
1:00 PM
Tue, May 26
84 °FPassing clouds.6 mph33%30.07 "HgN/A
12:30 PM82 °FSunny.8 mph35%30.07 "Hg10 mi
12:00 PM82 °FSunny.8 mph40%30.07 "Hg10 mi
11:30 AM82 °FSunny.8 mph40%30.07 "Hg10 mi
11:00 AM81 °FSunny.6 mph34%30.07 "Hg10 mi
10:30 AM79 °FSunny.8 mph34%30.07 "Hg10 mi
10:00 AM75 °FSunny.6 mph41%30.07 "Hg10 mi
9:30 AM75 °FPassing clouds.3 mph41%30.07 "HgN/A
9:00 AM72 °FPassing clouds.3 mph47%30.04 "HgN/A
8:30 AM70 °FSunny.3 mph50%30.04 "Hg10 mi
8:00 AM63 °FSunny.1 mph68%30.04 "Hg10 mi
7:30 AM63 °FSunny.1 mph68%30.04 "Hg10 mi
7:00 AM59 °FSunny.3 mph72%30.04 "Hg10 mi
6:30 AM57 °FClear.3 mph77%30.04 "Hg10 mi
6:00 AM57 °FClear.3 mph77%30.04 "Hg10 mi
5:30 AM57 °FClear.3 mph77%30.04 "Hg10 mi
5:00 AM61 °FClear.3 mph68%30.04 "Hg10 mi
4:00 AM61 °FClear.3 mph68%30.04 "Hg10 mi
3:00 AM61 °FClear.3 mph68%30.04 "Hg10 mi
2:30 AM63 °FClear.3 mph64%30.04 "Hg10 mi
2:00 AM63 °FClear.8 mph64%30.04 "Hg10 mi
1:30 AM63 °FClear.8 mph64%30.04 "Hg10 mi
1:00 AM64 °FClear.6 mph64%30.07 "Hg10 mi
12:30 AM66 °FClear.6 mph60%30.07 "Hg10 mi
12:00 AM66 °FClear.6 mph60%30.07 "Hg10 mi
11:30 PM
Mon, May 25
68 °FClear.6 mph56%30.07 "Hg10 mi
11:00 PM70 °FClear.6 mph50%30.07 "Hg10 mi
10:30 PM70 °FClear.6 mph53%30.07 "Hg10 mi
10:00 PM73 °FSunny.6 mph44%30.07 "Hg10 mi
9:30 PM75 °FSunny.6 mph41%30.07 "Hg10 mi
9:00 PM81 °FSunny.6 mph30%30.04 "Hg10 mi
8:30 PM82 °FSunny.8 mph28%30.04 "Hg10 mi
8:00 PM84 °FSunny.10 mph25%30.04 "Hg10 mi
7:30 PM84 °FSunny.13 mph25%30.04 "Hg10 mi
7:00 PM84 °FSunny.13 mph25%30.04 "Hg10 mi
6:30 PM86 °FPassing clouds.10 mph25%30.04 "HgN/A
6:00 PM84 °FPassing clouds.8 mph27%30.07 "HgN/A
5:30 PM84 °FPassing clouds.13 mph25%30.07 "HgN/A
5:00 PM86 °FSunny.8 mph24%30.07 "Hg10 mi
4:30 PM86 °FPassing clouds.8 mph22%30.07 "HgN/A
4:00 PM84 °FPassing clouds.10 mph25%30.07 "HgN/A
3:30 PM84 °FPassing clouds.10 mph23%30.07 "HgN/A
3:00 PM82 °FPassing clouds.8 mph25%30.09 "HgN/A
2:30 PM82 °FPassing clouds.8 mph25%30.09 "HgN/A
2:00 PM82 °FPassing clouds.8 mph23%30.09 "HgN/A
Weather by CustomWeather, © 2015

See weather overviewHow to use our weather pages